Lid_Strength_Index
1 2 2 0 -0 -1 -2 -2 -2 -2 -2 -1 -1 -1 -2 -2 -1 -1 -1 -1 -1 0 2 2 2 -0 4 8 9 4 -0 1 5 6 8 10 12 13 15 14 14 15 13 11 11 11 11
2 2 2 -0 -0 -2 -2 -2 -2 -2 -2 -1 -1 -1 -1 -1 -1 -1 -1 -1 -1 0 1 2 1 2 5 10 4 3 4 5 6 7 9 9 11 11 13 14 15 13 12 12 11 11 11
2 2 1 -0 -0 -2 -2 -2 -2 -2 -1 -1 -1 -1 -1 -1 -1 -1 -1 -1 -1 -1 0 1 1 2 6 7 3 3 5 6 6 7 8 8 8 11 12 14 11 12 14 13 13 12 12
2 2 1 -0 -0 -2 -2 -2 -2 -2 -2 -1 -1 -1 -1 -1 -1 -1 -1 -1 -1 -1 -1 0 0 3 8 3 2 5 5 6 5 6 6 7 7 10 11 11 13 15 16 18 14 12 11
2 2 1 -0 -0 -2 -2 -2 -2 -2 -2 -2 -1 -1 -2 -1 -1 -1 -1 -1 -1 -1 -1 -0 3 5 9 2 5 4 5 7 6 6 6 6 8 11 11 15 19 17 21 18 15 12 11
2 2 1 0 -0 -1 -2 -2 -2 -2 -2 -2 -1 -1 -1 -1 -1 -1 -1 -1 -1 -0 1 2 3 7 6 7 5 5 4 5 6 7 8 9 11 14 13 18 23 20 19 16 16 13 12
2 1 2 0 -0 -1 -1 -2 -2 -2 -2 -2 -2 -1 -1 -1 -0 -0 2 3 5 6 5 9 8 8 7 5 4 6 5 6 7 9 14 12 17 21 17 15 16 14 14 15 13 12 12
2 2 2 0 0 -0 -1 -1 -2 -2 -2 -2 -2 -2 -1 -2 -1 -1 2 6 6 5 9 5 5 6 5 5 9 7 5 9 10 15 12 14 19 14 13 13 14 14 15 16 13 11 13
2 2 2 1 0 0 -1 -1 -1 -1 -1 -1 -1 -1 -0 -1 -0 2 3 4 2 2 10 8 6 7 7 6 9 9 7 9 12 14 14 16 14 11 12 13 14 15 16 15 14 12 11
3 2 2 2 0 0 -0 -0 -1 -1 -1 -1 -1 -1 -0 1 4 5 5 2 2 3 12 11 9 8 6 6 10 7 6 9 11 14 14 15 12 12 13 14 13 16 12 12 12 13 17
3 3 2 2 1 0 0 0 -0 -0 -0 -0 -0 -0 0 1 4 5 4 3 3 6 21 9 9 5 6 9 10 9 6 9 13 13 13 15 13 13 13 12 11 13 11 12 12 14 15
3 3 3 2 2 1 1 0 0 0 0 0 1 0 1 4 4 4 4 5 8 18 20 13 9 10 10 10 10 9 9 8 9 12 13 13 10 11 12 11 10 9 12 12 13 14 19
3 3 3 3 2 2 1 1 1 1 0 0 1 1 3 3 7 4 5 9 17 20 11 13 13 11 12 12 12 11 12 14 15 19 18 13 13 11 9 13 10 11 14 20 22 20 21
3 3 3 3 2 2 1 0 1 1 1 1 1 3 4 4 4 5 8 13 18 13 13 10 11 11 13 12 13 13 13 15 13 14 15 16 19 12 9 11 13 13 14 18 23 22 20
3 3 3 3 3 2 2 1 1 1 1 1 3 7 6 5 4 6 10 15 15 12 11 11 11 13 13 11 12 13 15 14 11 11 15 15 17 10 10 9 10 13 16 12 17 16 19
4 3 3 3 3 2 2 2 1 1 1 2 8 9 9 5 6 8 11 13 12 9 9 10 14 14 16 14 15 15 14 10 11 10 10 12 16 13 10 9 9 11 10 17 16 21 22
4 4 3 3 3 2 2 2 2 2 2 3 9 10 7 6 7 10 14 13 11 9 9 11 13 15 14 13 12 14 14 11 9 9 8 10 13 15 12 13 14 13 14 14 14 16 20
4 4 3 3 3 3 2 2 2 3 3 7 11 13 7 7 12 15 15 12 9 10 9 10 11 11 13 12 13 13 13 11 8 9 12 10 12 16 15 12 11 12 13 13 18 18 18
5 5 4 3 3 3 2 2 3 3 4 11 12 12 8 8 15 17 13 12 11 11 10 10 11 10 11 12 13 12 12 9 9 10 12 11 16 20 18 16 14 15 14 14 14 16 18
5 5 5 4 3 3 2 2 3 3 3 10 13 15 11 11 13 14 15 14 12 10 10 10 11 11 11 12 12 14 13 11 9 9 7 10 16 17 20 17 16 16 15 15 15 19 18
5 5 5 4 3 3 2 3 3 4 4 10 13 15 13 17 13 14 14 13 13 13 10 10 11 12 13 14 14 14 13 12 10 10 11 12 16 18 16 15 16 16 16 16 18 17 18
6 6 6 5 4 3 2 3 3 4 5 11 14 15 15 15 14 15 13 14 13 12 12 12 12 11 12 14 15 15 13 14 15 12 13 13 17 16 17 15 15 16 16 15 15 15 16
5 6 7 6 4 3 3 3 3 4 7 12 13 12 14 15 16 16 15 14 12 12 11 10 11 13 13 12 11 12 12 12 13 15 14 14 16 17 20 17 16 18 15 15 15 15 14
5 6 7 7 5 4 4 3 3 4 6 11 12 13 15 17 16 15 13 13 12 12 13 11 11 13 11 10 11 13 14 13 13 13 13 15 16 17 20 18 23 17 14 14 14 13 12
5 6 7 7 6 4 4 4 4 4 6 10 11 12 15 17 16 16 15 14 14 14 13 12 11 10 10 12 14 15 16 15 15 14 14 13 15 17 20 22 18 17 15 14 14 14 12
5 6 7 7 6 5 4 4 4 4 5 11 12 12 13 16 17 15 15 16 16 17 15 13 11 10 11 13 15 18 19 18 18 16 14 14 14 16 19 21 21 18 14 12 13 16 12
5 6 8 8 7 6 5 4 4 4 5 10 12 12 12 15 15 15 16 16 15 16 16 15 13 13 13 15 16 18 18 18 19 20 19 17 17 19 19 21 18 15 13 13 18 17 14
6 6 7 8 7 7 6 6 5 5 5 9 12 12 12 15 15 14 13 14 15 15 16 14 15 14 15 16 17 18 19 18 20 18 18 18 20 20 19 21 22 14 14 16 14 14 13
6 6 7 8 8 7 6 6 6 5 5 9 13 11 11 13 14 13 12 12 12 12 14 15 15 15 14 17 17 17 17 19 20 20 19 20 17 19 17 17 14 14 13 13 13 13 12